[[{"header":{"parameterUnit":"m.s-1","parameterCategory":1,"la1":30.2991,"la2":30.254,"lo1":-89.0895,"lo2":-89.0444,"dy":0.0017,"dx":0.0017,"nx":28,"ny":28,"refTime":"2023-10-08T03:00:00:Z","depth":0,"parameterNumber":2,"parameterNumberName":"U-component_of_WINDS"},"data":[0,0,0,0,0,0,0,0,0,0,0,0,0,0,0,0,0,0,0,0,0,0,0,0,0,0,0,0,0,0,0,0,0,0,0,0,0,0,0,0,0,0,0,0,0,0,0,0,0,0,0,0,0,0,0,0,0,0,-0.9321,-0.9321,0,-0.9304,-0.9304,-0.9304,-0.9248,-0.9246,-0.9245,-0.9244,-0.9228,-0.9229,-0.923,0,0,0,0,0,0,0,0,0,0,0,0,0,-0.9306,-0.9306,-0.9321,-0.9321,-0.9321,-0.9304,-0.9304,-0.9304,-0.9248,-0.9246,-0.9245,-0.9243,-0.9228,-0.9229,-0.923,0,0,0,0,0,0,0,0,0,0,0,0,0,-0.9303,-0.9307,-0.9321,-0.9291,-0.9288,-0.9304,-0.9304,-0.9304,-0.9248,-0.9246,-0.9245,-0.9243,-0.9228,-0.9229,-0.923,-0.9274,0,0,-0.9233,-0.9234,0,0,0,0,0,0,0,0,-0.9303,-0.9304,-0.9295,-0.9293,-0.929,-0.9276,-0.9293,-0.9294,-0.9249,-0.9263,-0.9244,-0.9242,-0.9246,-0.9245,-0.9246,-0.9274,-0.9273,-0.9233,-0.9234,-0.9234,-0.9235,0,0,0,0,0,0,0,-0.9304,-0.9304,-0.9314,-0.9295,-0.9292,-0.9278,-0.9276,-0.9293,-0.9265,-0.9262,-0.9258,-0.9257,-0.9244,-0.9245,-0.9245,-0.9273,-0.9233,-0.9234,-0.9235,-0.9235,-0.9336,-0.9338,0,0,0,0,0,0,-0.9308,-0.9305,-0.9315,-0.9314,-0.9292,-0.928,-0.9277,-0.9282,-0.9265,-0.926,-0.9258,-0.9254,-0.9244,-0.9244,-0.9245,-0.9296,-0.9234,-0.9235,-0.9236,-0.9334,-0.9337,-0.9339,0,0,0,0,0,0,-0.9308,-0.9309,-0.9316,-0.9308,-0.9308,-0.9282,-0.9288,-0.9283,-0.9284,-0.9262,-0.9257,-0.9265,-0.9243,-0.9243,-0.9267,-0.9295,-0.9236,-0.9237,-0.9332,-0.9335,-0.9338,-0.94,0,0,0,0,0,0,-0.9308,-0.931,-0.9326,-0.9309,-0.9308,-0.9339,-0.929,-0.9284,-0.9286,-0.9281,-0.9267,-0.9263,-0.9241,-0.9266,-0.9269,-0.9296,-0.9238,-0.9329,-0.9333,-0.9337,-0.9396,-0.9405,-0.9413,0,0,0,0,0,-0.9307,-0.9345,-0.9327,-0.9329,-0.9329,-0.934,-0.934,-0.9314,-0.9289,-0.9306,-0.9291,-0.9263,-0.9291,-0.9269,-0.9271,-0.9299,-0.9328,-0.9332,-0.9337,-0.9392,-0.9403,-0.9413,0,0,0,0,0,0,-0.9367,-0.9342,-0.9322,-0.9355,-0.935,-0.9331,-0.9351,-0.9327,-0.933,-0.9324,-0.9292,-0.929,-0.9319,-0.9311,-0.9287,-0.9342,-0.9305,-0.931,-0.9346,-0.9357,-0.9365,-0.9367,-0.9239,0,0,0,0,0,-0.9383,-0.9394,-0.9372,-0.9403,-0.9402,-0.9377,-0.9381,-0.9361,-0.9355,-0.9353,-0.934,-0.9336,-0.9343,-0.9349,-0.9355,-0.9394,-0.939,-0.9414,-0.9423,-0.943,-0.9435,-0.9456,-0.9467,-0.9354,-0.9354,-0.9354,0,0,-0.9418,-0.9406,-0.9415,-0.9415,-0.9409,-0.9422,-0.9376,-0.9391,-0.94,-0.9355,-0.9378,-0.9368,-0.9361,-0.9393,-0.9406,-0.9388,-0.9465,-0.9436,-0.9442,-0.9443,-0.9462,-0.9473,-0.9482,-0.9357,-0.9356,-0.9356,0,0,-0.9489,-0.948,-0.9506,-0.95,-0.9491,-0.9474,-0.9481,-0.9465,-0.9457,-0.9478,-0.9445,-0.9456,-0.9469,-0.9466,-0.9466,-0.9535,-0.951,-0.9537,-0.9584,-0.9604,-0.9613,-0.9621,-0.9647,-0.9656,-0.9542,-0.9543,-0.9543,0,-0.9534,-0.9551,-0.9522,-0.954,-0.9541,-0.95,-0.9525,-0.9522,-0.9515,-0.9517,-0.9496,-0.9513,-0.9505,-0.9536,-0.9553,-0.9553,-0.956,-0.954,-0.9614,-0.9622,-0.9628,-0.9653,-0.9662,-0.9546,-0.9546,-0.9545,-0.9545,0,-0.9608,-0.962,-0.9642,-0.9637,-0.964,-0.9662,-0.9636,-0.9643,-0.9622,-0.9608,-0.9631,-0.962,-0.9623,-0.9629,-0.9609,-0.9657,-0.9646,-0.962,-0.9582,-0.9643,-0.9666,-0.9675,-0.9551,-0.955,-0.9549,-0.9548,0,0,-0.9717,-0.9694,-0.9703,-0.97,-0.9687,-0.9696,-0.9716,-0.9719,-0.9726,-0.9722,-0.9739,-0.9751,-0.9727,-0.9727,-0.9707,-0.9725,-0.9781,-0.9696,-0.9696,-0.9714,-0.9835,-0.9856,-0.9867,-0.9764,-0.9766,-0.9767,-0.9836,0,-0.9785,-0.9817,-0.9791,-0.9829,-0.9841,-0.9801,-0.9819,-0.9813,-0.98,-0.9808,-0.9793,-0.9803,-0.977,-0.977,-0.9785,-0.9771,-0.9806,-0.9766,-0.978,-0.9781,-0.9785,-0.9879,-0.9901,-0.9967,-0.9844,-0.9846,-0.9847,0,-0.9869,-0.9869,-0.9908,-0.9893,-0.9897,-0.9913,-0.9913,-0.9921,-0.9914,-0.9903,-0.9903,-0.9878,-0.9897,-0.9859,-0.9885,-0.9859,-0.9863,-0.9857,-0.9858,-0.986,-0.9819,-0.9885,-0.9987,-0.9998,-0.986,-0.9859,-0.9858,0,-0.9946,-0.9956,-0.9981,-0.998,-0.9962,-0.9974,-0.9967,-0.9958,-0.9961,-0.9962,-0.9964,-0.9966,-0.9968,-0.9971,-0.9948,-0.9922,-0.9977,-0.9937,-0.997,-0.9971,-0.9985,-0.9985,-1.0091,-0.9985,-0.9985,-0.9985,-0.9984,0,-1.0026,-1.0052,-1.0016,-1.0031,-1.0059,-1.0028,-1.0056,-1.0045,-1.0037,-1.005,-1.0016,-1.0029,-0.9996,-1.0006,-0.9988,-1.0013,-1.0014,-1.0006,-1.0001,-1.001,-1.0012,-1.0014,-1.0009,-0.9987,-0.9987,-0.9986,-0.9986,0,-1.0118,-1.0095,-1.0119,-1.01,-1.0096,-1.0117,-1.0101,-1.0115,-1.0099,-1.0116,-1.0118,-1.0093,-1.0103,-1.0079,-1.0086,-1.0073,-1.011,-1.0097,-1.0113,-1.0109,-1.0144,-1.0142,-1.0257,-1.0272,-1.0155,-1.0156,-1.0157,0,-1.0172,-1.0191,-1.0173,-1.0179,-1.0174,-1.0184,-1.0188,-1.0158,-1.0163,-1.0155,-1.017,-1.0177,-1.0181,-1.0198,-1.0182,-1.0186,-1.0174,-1.0214,-1.0175,-1.0184,-1.0177,-1.0177,-1.0179,-1.0223,-1.0225,-1.0226,-1.0227,0,-1.027,-1.0257,-1.0263,-1.0265,-1.0269,-1.0269,-1.0267,-1.0274,-1.0242,-1.0249,-1.0259,-1.0262,-1.0268,-1.0275,-1.0276,-1.027,-1.0244,-1.0239,-1.0247,-1.0257,-1.0267,-1.0264,-1.0137,-1.0237,-1.0236,-1.0235,-1.0235,-1.0234,-1.0345,-1.036,-1.035,-1.0358,-1.0353,-1.0352,-1.0364,-1.0349,-1.0356,-1.0359,-1.034,-1.0354,-1.0346,-1.0345,-1.0341,-1.0351,-1.0333,-1.0345,-1.0348,-1.0352,-1.0358,-1.0263,-1.0351,-1.0351,-1.035,-1.035,-1.035,0,-1.0443,-1.0434,-1.0441,-1.0439,-1.0445,-1.0418,-1.0415,-1.0422,-1.0434,-1.0428,-1.0433,-1.0444,-1.0451,-1.0434,-1.0439,-1.0451,-1.0439,-1.0453,-1.0453,-1.0452,-1.0373,-1.0366,-1.0463,-1.0463,-1.0463,-1.0463,-1.0463,-1.0463,-1.0494,-1.0519,-1.0505,-1.0527,-1.0518,-1.0531,-1.0531,-1.053,-1.0525,-1.0539,-1.0545,-1.0533,-1.0524,-1.0527,-1.0533,-1.0528,-1.0532,-1.0551,-1.0542,-1.0469,-1.0458,-1.0447,-1.0441,-1.0552,-1.0552,-1.062,-1.0621,-1.0622]},{"header":{"parameterUnit":"m.s-1","parameterCategory":1,"la1":30.2991,"la2":30.254,"lo1":-89.0895,"lo2":-89.0444,"dy":0.0017,"dx":0.0017,"nx":28,"ny":28,"refTime":"2023-10-08T03:00:00:Z","depth":0,"parameterNumber":3,"parameterNumberName":"V-component_of_WINDS"},"data":[0,0,0,0,0,0,0,0,0,0,0,0,0,0,0,0,0,0,0,0,0,0,0,0,0,0,0,0,0,0,0,0,0,0,0,0,0,0,0,0,0,0,0,0,0,0,0,0,0,0,0,0,0,0,0,0,0,0,-2.0881,-2.0882,0,-2.0928,-2.0929,-2.0929,-2.0936,-2.0935,-2.0935,-2.0934,-2.0982,-2.0984,-2.0986,0,0,0,0,0,0,0,0,0,0,0,0,0,-2.0796,-2.0798,-2.0881,-2.0882,-2.0882,-2.0928,-2.0929,-2.093,-2.0936,-2.0935,-2.0935,-2.0934,-2.0982,-2.0984,-2.0986,0,0,0,0,0,0,0,0,0,0,0,0,0,-2.0837,-2.0798,-2.0881,-2.0891,-2.0892,-2.0928,-2.0929,-2.093,-2.0936,-2.0935,-2.0935,-2.0934,-2.0981,-2.0984,-2.0986,-2.1015,0,0,-2.0994,-2.0995,0,0,0,0,0,0,0,0,-2.0835,-2.084,-2.0889,-2.089,-2.0892,-2.0925,-2.0917,-2.0958,-2.0936,-2.0919,-2.0934,-2.0934,-2.0964,-2.0968,-2.0978,-2.1018,-2.102,-2.0994,-2.0996,-2.0997,-2.0997,0,0,0,0,0,0,0,-2.0832,-2.0838,-2.09,-2.089,-2.0891,-2.0893,-2.0898,-2.0925,-2.0945,-2.0921,-2.0921,-2.0927,-2.0965,-2.0976,-2.0979,-2.102,-2.0994,-2.0996,-2.0998,-2.0999,-2.1088,-2.1089,0,0,0,0,0,0,-2.0827,-2.0836,-2.0898,-2.0901,-2.0861,-2.0895,-2.0901,-2.0915,-2.0945,-2.0948,-2.0927,-2.0927,-2.0972,-2.0976,-2.0981,-2.1019,-2.0997,-2.0999,-2.1001,-2.1087,-2.1088,-2.1089,0,0,0,0,0,0,-2.0826,-2.0833,-2.0896,-2.0869,-2.0877,-2.0897,-2.0914,-2.0917,-2.0928,-2.095,-2.0953,-2.0935,-2.0971,-2.0977,-2.1007,-2.1021,-2.1,-2.1003,-2.1086,-2.1088,-2.1089,-2.1094,0,0,0,0,0,0,-2.0823,-2.0832,-2.0843,-2.0869,-2.0878,-2.0922,-2.0914,-2.0918,-2.0932,-2.0932,-2.0958,-2.0961,-2.0971,-2.1003,-2.101,-2.1024,-2.1005,-2.1085,-2.1087,-2.1088,-2.1093,-2.1095,-2.1097,0,0,0,0,0,-2.082,-2.0842,-2.0844,-2.0851,-2.0893,-2.0922,-2.0928,-2.0939,-2.0933,-2.0945,-2.0959,-2.096,-2.1018,-2.1006,-2.1014,-2.1029,-2.1084,-2.1086,-2.1088,-2.1092,-2.1095,-2.1097,0,0,0,0,0,0,-2.0817,-2.0846,-2.0848,-2.0879,-2.0898,-2.0923,-2.0938,-2.0942,-2.0963,-2.0962,-2.0974,-2.098,-2.101,-2.1022,-2.1009,-2.1059,-2.1051,-2.1054,-2.1051,-2.1054,-2.1056,-2.1053,-2.1007,0,0,0,0,0,-2.082,-2.0842,-2.0866,-2.0891,-2.0901,-2.0918,-2.0931,-2.0938,-2.0959,-2.0967,-2.0983,-2.1003,-2.1025,-2.104,-2.1062,-2.1094,-2.11,-2.1108,-2.111,-2.1112,-2.1115,-2.1135,-2.1139,-2.1095,-2.1095,-2.1095,0,0,-2.0827,-2.0845,-2.0858,-2.0891,-2.0907,-2.093,-2.0925,-2.0948,-2.0966,-2.097,-2.1,-2.1012,-2.1035,-2.1067,-2.1082,-2.1078,-2.1129,-2.1114,-2.1115,-2.1118,-2.1137,-2.1141,-2.1145,-2.1097,-2.1096,-2.1096,0,0,-2.0851,-2.0866,-2.089,-2.0906,-2.093,-2.0942,-2.0947,-2.0972,-2.0981,-2.1011,-2.1016,-2.1036,-2.1074,-2.1091,-2.1104,-2.1136,-2.1138,-2.1142,-2.1155,-2.1174,-2.1178,-2.1181,-2.1194,-2.1198,-2.1145,-2.1145,-2.1145,0,-2.0856,-2.0891,-2.0902,-2.0926,-2.0941,-2.0947,-2.0971,-2.0986,-2.1016,-2.1026,-2.1022,-2.1071,-2.1086,-2.1123,-2.1131,-2.1141,-2.1149,-2.114,-2.1176,-2.118,-2.1183,-2.1195,-2.12,-2.1146,-2.1145,-2.1145,-2.1145,0,-2.0897,-2.092,-2.0937,-2.0966,-2.0983,-2.1007,-2.1023,-2.1038,-2.1044,-2.1056,-2.1087,-2.1106,-2.1133,-2.1141,-2.1146,-2.1179,-2.1176,-2.1174,-2.1165,-2.1187,-2.1199,-2.1204,-2.1146,-2.1146,-2.1146,-2.1146,0,0,-2.0921,-2.0957,-2.0963,-2.0977,-2.1005,-2.1023,-2.1048,-2.1075,-2.1089,-2.1109,-2.1131,-2.1163,-2.1162,-2.1177,-2.1184,-2.1201,-2.1227,-2.1196,-2.1197,-2.1203,-2.1266,-2.1269,-2.1275,-2.1228,-2.1229,-2.123,-2.1265,0,-2.0949,-2.0994,-2.1006,-2.1044,-2.1067,-2.1073,-2.1095,-2.1114,-2.1126,-2.1148,-2.1161,-2.1185,-2.1179,-2.1189,-2.1205,-2.122,-2.124,-2.1217,-2.125,-2.1251,-2.1246,-2.1281,-2.1284,-2.1316,-2.1269,-2.127,-2.1271,0,-2.0989,-2.1011,-2.1052,-2.1078,-2.1088,-2.1108,-2.1134,-2.1154,-2.1176,-2.1184,-2.1202,-2.1208,-2.1234,-2.1224,-2.1261,-2.1246,-2.126,-2.1269,-2.127,-2.1276,-2.1264,-2.1289,-2.1327,-2.1332,-2.1278,-2.1277,-2.1277,0,-2.1005,-2.1045,-2.1075,-2.1087,-2.1118,-2.1132,-2.1145,-2.1166,-2.1182,-2.1205,-2.1216,-2.124,-2.1255,-2.1274,-2.1287,-2.1277,-2.1324,-2.1314,-2.1333,-2.1332,-2.1344,-2.1343,-2.1386,-2.1349,-2.1349,-2.1349,-2.1349,0,-2.1037,-2.1062,-2.1083,-2.1102,-2.1131,-2.1144,-2.1172,-2.1185,-2.1205,-2.1227,-2.1233,-2.1253,-2.1268,-2.1291,-2.13,-2.1332,-2.1337,-2.1345,-2.1348,-2.1346,-2.1345,-2.1356,-2.1355,-2.135,-2.135,-2.135,-2.1349,0,-2.106,-2.1075,-2.1109,-2.1135,-2.1143,-2.1163,-2.1186,-2.1205,-2.1217,-2.1245,-2.1252,-2.1271,-2.1298,-2.1313,-2.1346,-2.1353,-2.1388,-2.1389,-2.1381,-2.1383,-2.1401,-2.14,-2.1455,-2.1464,-2.1418,-2.1419,-2.1419,0,-2.108,-2.11,-2.1129,-2.1145,-2.1159,-2.1183,-2.12,-2.1213,-2.123,-2.1258,-2.1273,-2.1301,-2.1324,-2.1367,-2.1384,-2.141,-2.1413,-2.143,-2.1417,-2.1415,-2.1416,-2.1415,-2.1418,-2.1433,-2.1433,-2.1434,-2.1434,0,-2.1115,-2.1122,-2.1146,-2.1173,-2.1193,-2.1214,-2.1236,-2.1248,-2.1265,-2.1283,-2.1312,-2.133,-2.1365,-2.1392,-2.142,-2.1434,-2.1438,-2.1438,-2.1444,-2.1443,-2.1439,-2.1444,-2.139,-2.1437,-2.1437,-2.1437,-2.1436,-2.1436,-2.1139,-2.1158,-2.1182,-2.1209,-2.1227,-2.1247,-2.1266,-2.1282,-2.1305,-2.1336,-2.1342,-2.1372,-2.1395,-2.1433,-2.1447,-2.1472,-2.1468,-2.1476,-2.1479,-2.1481,-2.1483,-2.1434,-2.1476,-2.1476,-2.1476,-2.1476,-2.1476,0,-2.1177,-2.1193,-2.1217,-2.1248,-2.1269,-2.127,-2.1294,-2.1312,-2.1339,-2.136,-2.1383,-2.1416,-2.1444,-2.1463,-2.1491,-2.1507,-2.1509,-2.1514,-2.1514,-2.1518,-2.1484,-2.1477,-2.1512,-2.1512,-2.1512,-2.1512,-2.1512,-2.1512,-2.1199,-2.1232,-2.1241,-2.1283,-2.1299,-2.1329,-2.1343,-2.1362,-2.138,-2.1417,-2.144,-2.1452,-2.1473,-2.1503,-2.1529,-2.1534,-2.1545,-2.155,-2.1555,-2.1523,-2.152,-2.1516,-2.151,-2.1551,-2.1551,-2.1587,-2.1588,-2.1588]}]]